Weather History for Salida, CO

Change the Weather History Date:

Friday, November 11, 2011

  Actual Average (KGUC) Record (KGUC)
Temperature  
Mean Temperature 41 °F -  
Max Temperature 55 °F 41 °F 59 °F (2005)
Min Temperature 27 °F 14 °F -2 °F (1998)
Degree Days  
Heating Degree Days 24    
Moisture  
Dew Point -4 °F    
Average Humidity 16    
Maximum Humidity 28    
Minimum Humidity 8    
Precipitation  
Precipitation 0.00 in - - ()
Sea Level Pressure  
Sea Level Pressure 30.12 in    
Wind  
Wind Speed 11 mph (West)    
Max Wind Speed 20 mph    
Max Gust Speed 25 mph    
Visibility 10 miles    
Events      
Averages and records for this station are not official NWS values.
T = Trace of Precipitation, MM = Missing Value Source: NWS Daily Summary

Daily Weather History Graph

Daily Weather History Graph

Search for Another Location

Airport:

Trip Planner

Search our weather history database for the weather conditions in past years. The results will help you decide how hot, cold, wet, or windy it might be!

Date:

Astronomy

Nov. 11, 2011 Rise Set
Actual Time 6:41 AM MST 4:54 PM MST
Civil Twilight 6:13 AM MST 5:22 PM MST
Nautical Twilight 5:41 AM MST 5:54 PM MST
Astronomical Twilight 5:10 AM MST 6:25 PM MST
Moon 5:26 PM MST (11/11) 7:31 AM MST (11/11)
Length of Visible Light 11h 09m
Length of Day
10h 13m
Full, 99% of the Moon is Illuminated
Nov 11
Full
Nov 18
Last Quarter
Nov 24
New
Dec 2
First Quarter
Dec 10
Full

Hourly Weather History & Observations

Time (MST) Temp. Windchill Dew Point Humidity Pressure Visibility Wind Dir Wind Speed Gust Speed Precip Events Conditions
12:15 AM 35.4 °F 26.0 °F -3.1 °F 19% 30.27 in 10.0 mi SW 15.0 mph 21.9 mph N/A   Clear
12:35 AM 31.3 °F 27.9 °F 1.2 °F 28% 30.27 in 10.0 mi NNW 3.5 mph - N/A   Clear
12:55 AM 30.9 °F 22.8 °F 0.1 °F 27% 30.25 in 10.0 mi North 9.2 mph - N/A   Clear
1:15 AM 30.9 °F 20.2 °F 0.1 °F 27% 30.25 in 10.0 mi North 15.0 mph - N/A   Clear
1:35 AM 32.0 °F 23.0 °F -1.5 °F 24% 30.25 in 10.0 mi North 11.5 mph 18.4 mph N/A   Clear
2:15 AM 36.1 °F 27.7 °F -5.1 °F 17% 30.25 in 10.0 mi WNW 12.7 mph 19.6 mph N/A   Clear
2:35 AM 35.2 °F 27.1 °F -6.0 °F 17% 30.24 in 10.0 mi SSW 11.5 mph 19.6 mph N/A   Clear
3:15 AM 31.1 °F 27.7 °F -2.7 °F 23% 30.22 in 10.0 mi North 3.5 mph - N/A   Clear
3:35 AM 35.6 °F 27.1 °F -6.7 °F 16% 30.22 in 10.0 mi WNW 12.7 mph 18.4 mph N/A   Clear
3:55 AM 32.7 °F 22.5 °F -4.9 °F 20% 30.21 in 10.0 mi NNW 15.0 mph 23.0 mph N/A   Clear
4:35 AM 31.3 °F 21.6 °F -5.3 °F 21% 30.21 in 10.0 mi NNW 12.7 mph - N/A   Clear
4:55 AM 32.0 °F 24.2 °F -6.2 °F 19% 30.22 in 10.0 mi NW 9.2 mph 16.1 mph N/A   Clear
5:35 AM 30.2 °F 21.3 °F -5.1 °F 22% 30.20 in 10.0 mi NNW 10.4 mph - N/A   Clear
6:15 AM 30.0 °F 21.7 °F -5.4 °F 22% 30.20 in 10.0 mi NNW 9.2 mph 17.3 mph N/A   Clear
6:35 AM 29.8 °F 22.2 °F -4.5 °F 23% 30.20 in 10.0 mi NW 8.1 mph - N/A   Clear
6:55 AM 27.7 °F 18.8 °F -4.0 °F 25% 30.20 in 10.0 mi NNW 9.2 mph - N/A   Clear
7:15 AM 28.6 °F 18.2 °F -3.1 °F 25% 30.20 in 10.0 mi NNW 12.7 mph - N/A   Clear
7:35 AM 31.5 °F 22.9 °F -1.3 °F 25% 30.21 in 10.0 mi NW 10.4 mph - N/A   Clear
7:55 AM 31.8 °F 26.2 °F -2.9 °F 23% 30.20 in 10.0 mi NW 5.8 mph - N/A   Clear
8:15 AM 31.8 °F 25.4 °F -1.8 °F 24% 30.20 in 10.0 mi NNW 6.9 mph - N/A   Clear
8:35 AM 34.7 °F 29.6 °F -0.8 °F 22% 30.19 in 10.0 mi NNW 5.8 mph - N/A   Clear
8:55 AM 34.5 °F - 1.2 °F 24% 30.19 in 10.0 mi Calm Calm - N/A   Clear
9:15 AM 38.5 °F 32.1 °F 0.9 °F 21% 30.19 in 10.0 mi North 9.2 mph - N/A   Clear
9:35 AM 40.3 °F 34.9 °F -0.2 °F 18% 30.18 in 10.0 mi North 8.1 mph - N/A   Clear
9:55 AM 42.4 °F 37.5 °F -2.7 °F 15% 30.17 in 10.0 mi North 8.1 mph - N/A   Clear
10:15 AM 45.3 °F - -3.5 °F 13% 30.17 in 10.0 mi Calm Calm - N/A   Clear
10:35 AM 45.5 °F 42.5 °F -4.4 °F 12% 30.16 in 10.0 mi North 5.8 mph - N/A   Clear
10:55 AM 48.4 °F - -4.2 °F 11% 30.14 in 10.0 mi NNE 4.6 mph - N/A   Clear
11:15 AM 50.9 °F - -5.1 °F 10% 30.13 in 10.0 mi NE 6.9 mph - N/A   Clear
11:35 AM 53.1 °F - -6.5 °F 8% 30.12 in 10.0 mi South 10.4 mph - N/A   Clear
11:55 AM 53.1 °F - -7.1 °F 8% 30.10 in 10.0 mi SSW 16.1 mph 21.9 mph N/A   Clear
12:15 PM 52.0 °F - -8.0 °F 8% 30.09 in 10.0 mi SSW 13.8 mph 23.0 mph N/A   Clear
12:35 PM 51.4 °F - -5.8 °F 9% 30.07 in 10.0 mi SSW 13.8 mph 24.2 mph N/A   Clear
12:55 PM 51.4 °F - -4.7 °F 10% 30.06 in 10.0 mi SSW 15.0 mph 23.0 mph N/A   Clear
1:15 PM 53.1 °F - -5.4 °F 9% 30.05 in 10.0 mi SSW 15.0 mph 21.9 mph N/A   Clear
1:35 PM 55.2 °F - -6.3 °F 8% 30.04 in 10.0 mi SSW 15.0 mph 19.6 mph N/A   Clear
1:55 PM 54.5 °F - -6.3 °F 8% 30.03 in 10.0 mi SSW 13.8 mph 19.6 mph N/A   Clear
2:15 PM 52.7 °F - -2.7 °F 10% 30.02 in 10.0 mi SSW 17.3 mph 23.0 mph N/A   Clear
2:35 PM 52.7 °F - -0.9 °F 11% 30.02 in 10.0 mi SSW 13.8 mph 25.3 mph N/A   Clear
2:55 PM 51.1 °F - 1.0 °F 13% 30.02 in 10.0 mi SSW 12.7 mph 20.7 mph N/A   Clear
3:15 PM 49.5 °F - -0.6 °F 13% 30.02 in 10.0 mi South 19.6 mph 24.2 mph N/A   Clear
3:35 PM 48.2 °F - 3.9 °F 16% 30.01 in 10.0 mi SSW 11.5 mph 19.6 mph N/A   Clear
3:55 PM 47.3 °F - 2.1 °F 16% 30.01 in 10.0 mi South 18.4 mph 21.9 mph N/A   Clear
4:35 PM 46.0 °F 39.9 °F -6.0 °F 11% 30.01 in 10.0 mi SSW 13.8 mph 24.2 mph N/A   Clear
4:55 PM 45.3 °F 39.7 °F -7.2 °F 11% 30.01 in 10.0 mi SSW 11.5 mph 18.4 mph N/A   Clear
5:15 PM 44.2 °F 38.4 °F -5.1 °F 13% 30.01 in 10.0 mi SSW 11.5 mph - N/A   Clear
5:35 PM 45.5 °F 38.6 °F -10.1 °F 9% 30.00 in 10.0 mi South 16.1 mph 21.9 mph N/A   Clear
5:55 PM 45.0 °F 38.9 °F -8.7 °F 10% 30.00 in 10.0 mi SSW 12.7 mph 19.6 mph N/A   Clear
6:15 PM 45.3 °F 38.1 °F -8.5 °F 10% 30.00 in 10.0 mi South 17.3 mph 23.0 mph N/A   Clear
6:35 PM 44.1 °F 37.1 °F -6.5 °F 12% 30.00 in 10.0 mi SSW 15.0 mph 19.6 mph N/A   Clear
6:55 PM 44.8 °F 39.4 °F -5.4 °F 12% 30.00 in 10.0 mi SSW 10.4 mph 18.4 mph N/A   Clear
7:15 PM 44.2 °F 36.4 °F -3.3 °F 14% 30.00 in 10.0 mi SSW 18.4 mph 25.3 mph N/A   Clear
7:55 PM 43.2 °F 35.0 °F 0.7 °F 17% 29.98 in 10.0 mi SW 18.4 mph - N/A   Clear
8:15 PM 42.8 °F 36.2 °F 1.8 °F 18% 29.98 in 10.0 mi SW 12.7 mph 21.9 mph N/A   Clear
8:35 PM 41.7 °F 34.1 °F 4.1 °F 21% 29.98 in 10.0 mi SW 15.0 mph 21.9 mph N/A   Clear
8:55 PM 41.4 °F 34.3 °F 5.0 °F 22% 29.97 in 10.0 mi SW 12.7 mph 21.9 mph N/A   Clear
9:15 PM 41.7 °F 34.4 °F 3.6 °F 21% 29.97 in 10.0 mi SW 13.8 mph 19.6 mph N/A   Clear
9:35 PM 41.5 °F 34.2 °F 3.7 °F 21% 29.97 in 10.0 mi SW 13.8 mph 20.7 mph N/A   Clear
9:55 PM 41.2 °F 33.4 °F 5.2 °F 23% 29.96 in 10.0 mi WSW 15.0 mph 18.4 mph N/A   Clear
10:15 PM 41.0 °F 32.5 °F 5.9 °F 23% 29.95 in 10.0 mi SSW 17.3 mph 24.2 mph N/A   Clear
10:35 PM 40.1 °F 32.0 °F 6.6 °F 25% 29.94 in 10.0 mi SW 15.0 mph 24.2 mph N/A   Clear
10:55 PM 39.7 °F 30.6 °F 7.7 °F 27% 29.94 in 10.0 mi SSW 18.4 mph 26.5 mph N/A   Clear
11:15 PM 38.5 °F 28.3 °F 9.9 °F 31% 29.94 in 10.0 mi SSW 20.7 mph 27.6 mph N/A   Clear
11:35 PM 38.3 °F 31.4 °F 9.1 °F 30% 29.94 in 10.0 mi South 10.4 mph 18.4 mph N/A   Clear
11:55 PM 37.4 °F 29.8 °F 9.5 °F 32% 29.93 in 10.0 mi South 11.5 mph 19.6 mph N/A   Clear